Showing default

COSMOS 2595 (GLONASS), 65590

Orbit data source: Space-Track

COSMOS 2595 (GLONASS), 65590 is a Commonwealth of Independent States-origin payload satellite in MEO that was launched on Sat, 13 Sep 2025 UTC via a SOYUZ-2-1B launch vehicle from the Plesetsk Missile And Space Complex (PKMTR). Payload-class satellites include a variety of spacecraft equipped with specific instruments for various scientific and technological missions. These include communications satellites like Starlink; space stations such as the ISS; scientific satellites like the Hubble; Earth observation satellites from companies like Planet Labs, Umbra, and HawkEye 360; GPS; miniature CubeSats for education and research; and military/defense satellites.

Loading next visibility...
Identifier
65590, 2025-206B
Orbit
MEO
Country
Flag of CISCIS
Related business
Manufacturer
Resehetnev ISS
Mission
Operational Defense Navigation
Bus & Motor
EKSPRESS-1000, AOCS
Mass
974 kg wet, ~800 kg dry
Launch date (UTC)
2025-09-13 (9 months ago)
Launch vehicle
SOYUZ-2-1B
Launch site
Plesetsk Missile And Space Complex (PKMTR)
Object type
Payload
Rocket body
Debris
Shape & HBR
Box + 2 Pan, 14.5 m
Radar Cross Section
3.585 m², Large (>1 m²)

Expand to show TLE details & history
Last TLE update: 6 days ago

TLE from 6 days ago
0 COSMOS 2595 (GLONASS)
1 65590U 25206B   26161.38985729 -.00000039  00000-0  00000-0 0  9990
2 65590  64.6376 315.2225 0011088 312.7926  24.8898  2.13100656  5768
Epoch: 2026-06-10T09:21Z
TLE epoch observation values (Epoch: 2026-06-10T09:21:23.669Z)
Latitude
-20.04463°
Longitude
-93.83275°
Altitude
19,109.857 km
Speed
3.957 km/s
True Right ascension
20h 21m 03s
True Declination
-20° 00' 49"
Sunlit
Object was in daylight at epoch
Visualization orbit readout
Latitude
Unknown
Longitude
Unknown
Altitude
Unknown
Speed
Unknown
Apparent Right ascension
Unknown
Apparent Declination
Unknown
Sunlit
N/A
Visualization observer readout
Local Sidereal Time
13:39:43
Azimuth
Unknown
Elevation
Unknown
Doppler factor
Unknown
Orbital elements
Apogee altitude
19,157.905 km
Perigee altitude
19,101.339 km
Semi-major axis
25,507.759 km
Eccentricity
0.00111
Inclination
64.6376°
RAAN
315.2225°
Arg. of periapsis
312.7926°
True anomaly
24.94334°
Mean anomaly
24.8898°
Eccentric anomaly
24.91656°
Mean motion
0.53276 °/min
Orbital period
675.72 mins
BSTAR
0
Loading maneuver chart data...
Computing Atmospheric mass density...
Loading historical data...
Loading historical data...
Loading historical data...
Loading historical data...
Loading historical data...
Loading historical data...
Loading historical data...
Other satellites on launch #206 in the year 2025 (2025-09-13 UTC)

Documentation

Showing up to 5 results
|